Regional Weather Roundup
Issued by NWS Jackson, KY

Home | Current Version | Previous Version | Text Only | Print | Product List | Glossary Off
Versions: 1 2 3 4 5 6 7 8 9 10 11 12 13 14 15 16 17 18 19 20 21 22 23 24 25 26 27 28 29 30 31 32 33 34 35 36 37 38 39 40 41 42 43 44 45 46 47 48 49 50

000
ASUS43 KJKL 122210
RWRJKL

EAST KENTUCKY HOURLY WEATHER ROUNDUP
NATIONAL WEATHER SERVICE JACKSON KY
500 PM EST TUE DEC 12 2017

NOTE: "FAIR" INDICATES FEW OR NO CLOUDS BELOW 12,000 FEET WITH
NO SIGNIFICANT WEATHER AND/OR OBSTRUCTIONS TO VISIBILITY.

* THESE REPORTS ARE NOT UNDER NWS QUALITY CONTROL AND MAY NOT
  REPORT WEATHER SUCH AS PRECIPITATION AND FOG.

KYZ079-080-083-085-087-088-110-112-115-119-120-122300
...EASTERN KENTUCKY...

CITY           SKY/WX    TMP DP  RH WIND       PRES   REMARKS
JACKSON        PTCLDY    29   7  39 NW12G29   29.90R WCI  19
LONDON         PTCLDY    32   6  33 NW13G21   29.94R WCI  22
SOMERSET*      PTCLDY    32   0  25 W14G25    30.01R WCI  22
MONTICELLO*    PTCLDY    33   6  32 NW20G26   30.00R WCI  21
WILLIAMSBURG*  PTCLDY    32   3  29 W14G24    29.95R WCI  22
MIDDLESBORO*   CLOUDY    35  16  45 NW15G21   29.92S WCI  25
HARLAN APT*    CLOUDY    32  12  43 SW10G21   29.88R WCI  24
PIKE CO APT*   CLOUDY    28   9  43 NW18G24   29.86R WCI  16
BIG SANDY APT* CLOUDY    29  13  52 NW9G20    29.89R WCI  20
MOREHEAD APT*  CLOUDY    28   7  40 NW17G24   29.95R WCI  16
$$

KYZ035-036-041-042-044-050-067-078-099-122300
...CENTRAL KENTUCKY...

CITY           SKY/WX    TMP DP  RH WIND       PRES   REMARKS
MT STERLING*   PTCLDY    30   9  40 N6        29.97R WCI  24
FLEMING/MASON* CLOUDY    26  10  49 NW14G24   29.96R WCI  15
DANVILLE*      CLEAR     30   5  34 NW12G20   29.99R WCI  21
LEXINGTON      PTCLDY    29   6  38 NW14G23   29.97R WCI  18
FRANKFORT      PTCLDY    30   4  33 NW8       29.98R WCI  22
LOUISVILLE     MOCLDY    31   6  35 NW14G22   30.03R WCI  21
LEBANON*         N/A     28   5  37 NW12      30.02R WCI  18
GLASGOW*       CLEAR     33  12  41 W12G23    30.05R WCI  24
BOWLING GREEN  MOCLDY    35  10  35 NW8G22    30.08R WCI  29
$$

KYZ091>093-OHZ055-061-077-WVZ005-015-034-035-042-122300
...SOUTHERN OHIO/WEST VIRGINIA...

CITY           SKY/WX    TMP DP  RH WIND       PRES   REMARKS
COVINGTON      PTCLDY    26   9  48 NW15      29.96R WCI  14
COLUMBUS       CLOUDY    24  10  55 NW15      29.88R WCI  11
DAYTON         MOCLDY    20  14  77 W15       29.93R WCI   6
WILMINGTON     CLOUDY    23  13  65 NW17      29.91R WCI   9
HUNTINGTON     LGT SNOW  25  15  66 NW9       29.92R WCI  15
CHARLESTON     FLURRIES  26  12  55 NW18G28   29.87R WCI  13
PINEVILLE*     LGT SNOW  28  16  60 MISG      29.85R
BECKLEY        LGT SNOW  20  16  84 NW13G23   29.73R VSB 1   WCI   7
BLUEFIELD      FLURRIES  21  13  71 NW17G32   29.71S WCI   7
LOGAN CO APT*  CLOUDY    25  19  80 VRB3G15   29.83R
$$

VAZ002-007-008-TNZ017-027-036-066-071-122300
...SOUTHWEST VIRGINIA/EAST TENNESSEE...

CITY           SKY/WX    TMP DP  RH WIND       PRES   REMARKS
WISE*          CLOUDY    28  18  64 W16G26    29.80R WCI  17
JONESVILLE*      N/A     32  14  47 W7G17     29.90R WCI  26
ABINGDON*      PTCLDY    32  14  47 NW10G22   29.79R WCI  24
BRISTOL        MOCLDY    33  18  53 NW21G30   29.84R WCI  21
MORRISTOWN*    PTCLDY    36  14  41 W13G22    29.89R WCI  27
SEVIERVILLE*   CLOUDY    37  19  48 W13G23    29.93R WCI  29
KNOXVILLE      PTCLDY    36  23  59 W15       29.95R WCI  27
LAFOLLETTE*    PTCLDY    36  16  44 W8G14     29.97R WCI  29
OAK RIDGE      PTCLDY    38  18  44 W8        29.97R WCI  32
CROSSVILLE     PTCLDY    32  13  45 W15       29.95R WCI  22
NASHVILLE      PTCLDY    39  10  30 NW16      30.08R WCI  30
$$

...KEY TO REMARKS...
VSB - VISIBILITY IN MILES
WCI - WIND CHILL INDEX
HX  - HEAT INDEX

$$



USA.gov is the U.S. government's official web portal to all federal, state and local government web resources and services.